| time (UTC) | temp C | wind direction | speed KPH | gust KPH | rain 1hr cm | rain 24hr cm | rain mn cm | humidity % | barometer mb |
| 20260505003748 | 16 | 237 | 8.0 | 8.0 | 0.00 | 0.00 | 0.00 | 50 | 1008.0 |
| 20260505003246 | 16 | 233 | 4.8 | 14.5 | 0.00 | 0.00 | 0.00 | 50 | 1008.0 |
| 20260505002742 | 16 | 247 | 6.4 | 6.4 | 0.00 | 0.00 | 0.00 | 49 | 1008.0 |
| 20260505002239 | 17 | 219 | 6.4 | 16.1 | 0.00 | 0.00 | 0.00 | 48 | 1007.7 |
| 20260505001737 | 17 | 222 | 11.3 | 19.3 | 0.00 | 0.00 | 0.00 | 48 | 1007.6 |
| 20260505001234 | 17 | 195 | 3.2 | 8.0 | 0.00 | 0.00 | 0.00 | 48 | 1007.4 |
| 20260505000731 | 17 | 243 | 4.8 | 17.7 | 0.00 | 0.00 | 0.00 | 48 | 1007.3 |
| 20260505000229 | 17 | 51 | 0.0 | 9.7 | 0.00 | 0.00 | 0.00 | 48 | 1007.3 |
| 20260504235725 | 17 | 76 | 0.0 | 9.7 | 0.00 | 0.00 | 0.00 | 47 | 1007.1 |
| 20260504235221 | 17 | 231 | 3.2 | 17.7 | 0.00 | 0.00 | 0.00 | 46 | 1006.9 |
| 20260504234719 | 18 | 200 | 6.4 | 20.9 | 0.00 | 0.00 | 0.00 | 45 | 1006.9 |
| 20260504234216 | 18 | 257 | 6.4 | 14.5 | 0.00 | 0.00 | 0.00 | 46 | 1006.9 |
| 20260504233712 | 18 | 253 | 6.4 | 11.3 | 0.00 | 0.00 | 0.00 | 45 | 1006.8 |
| 20260504233208 | 18 | 228 | 6.4 | 9.7 | 0.00 | 0.00 | 0.00 | 45 | 1006.9 |
| 20260504232705 | 18 | 230 | 3.2 | 8.0 | 0.00 | 0.00 | 0.00 | 44 | 1006.5 |
| 20260504232202 | 18 | 226 | 14.5 | 17.7 | 0.00 | 0.00 | 0.00 | 43 | 1006.6 |
| 20260504231659 | 19 | 234 | 11.3 | 11.3 | 0.00 | 0.00 | 0.00 | 42 | 1006.2 |
| 20260504231155 | 19 | 260 | 6.4 | 16.1 | 0.00 | 0.00 | 0.00 | 41 | 1006.3 |
| 20260504230651 | 19 | 313 | 3.2 | 14.5 | 0.00 | 0.00 | 0.00 | 41 | 1006.1 |
| 20260504230150 | 20 | 228 | 6.4 | 14.5 | 0.00 | 0.00 | 0.00 | 40 | 1006.2 |
| 20260504225648 | 20 | 189 | 8.0 | 17.7 | 0.00 | 0.00 | 0.00 | 39 | 1006.0 |
| 20260504225144 | 20 | 230 | 11.3 | 11.3 | 0.00 | 0.00 | 0.00 | 38 | 1006.0 |
| 20260504224641 | 21 | 253 | 6.4 | 16.1 | 0.00 | 0.00 | 0.00 | 36 | 1005.9 |
| 20260504224137 | 21 | 320 | 1.6 | 14.5 | 0.00 | 0.00 | 0.00 | 36 | 1005.9 |
| 20260504223635 | 21 | 262 | 8.0 | 16.1 | 0.00 | 0.00 | 0.00 | 33 | 1005.7 |
| 20260504223131 | 21 | 190 | 12.9 | 16.1 | 0.00 | 0.00 | 0.00 | 32 | 1005.6 |
| 20260504222628 | 21 | 210 | 6.4 | 8.0 | 0.00 | 0.00 | 0.00 | 33 | 1005.7 |
| 20260504222125 | 21 | 226 | 4.8 | 11.3 | 0.00 | 0.00 | 0.00 | 33 | 1005.7 |
| 20260504221622 | 21 | 38 | 0.0 | 11.3 | 0.00 | 0.00 | 0.00 | 34 | 1005.7 |
| 20260504221119 | 22 | 327 | 3.2 | 14.5 | 0.00 | 0.00 | 0.00 | 33 | 1005.7 |
| 20260504220615 | 22 | 26 | 1.6 | 9.7 | 0.00 | 0.00 | 0.00 | 33 | 1005.6 |
| 20260504220113 | 21 | 273 | 3.2 | 11.3 | 0.00 | 0.00 | 0.00 | 33 | 1005.7 |
| 20260504215609 | 21 | 259 | 6.4 | 14.5 | 0.00 | 0.00 | 0.00 | 33 | 1005.8 |
| 20260504215107 | 21 | 317 | 4.8 | 16.1 | 0.00 | 0.00 | 0.00 | 33 | 1005.8 |
| 20260504214602 | 22 | 209 | 0.0 | 9.7 | 0.00 | 0.00 | 0.00 | 32 | 1005.6 |
| 20260504214059 | 21 | 273 | 9.7 | 14.5 | 0.00 | 0.00 | 0.00 | 32 | 1005.6 |
| 20260504213555 | 22 | 278 | 0.0 | 14.5 | 0.00 | 0.00 | 0.00 | 32 | 1005.6 |
| 20260504213052 | 22 | 218 | 8.0 | 11.3 | 0.00 | 0.00 | 0.00 | 32 | 1005.8 |
| 20260504212548 | 22 | 3 | 3.2 | 11.3 | 0.00 | 0.00 | 0.00 | 32 | 1005.7 |
| 20260504212046 | 22 | 208 | 11.3 | 12.9 | 0.00 | 0.00 | 0.00 | 31 | 1005.7 |
| 20260504211543 | 22 | 280 | 6.4 | 16.1 | 0.00 | 0.00 | 0.00 | 32 | 1005.7 |
| 20260504211039 | 23 | 224 | 6.4 | 6.4 | 0.00 | 0.00 | 0.00 | 32 | 1005.5 |
| 20260504210536 | 22 | 157 | 0.0 | 12.9 | 0.00 | 0.00 | 0.00 | 31 | 1005.7 |
| 20260504210033 | 22 | 263 | 8.0 | 14.5 | 0.00 | 0.00 | 0.00 | 32 | 1005.6 |
| 20260504205531 | 22 | 208 | 8.0 | 16.1 | 0.00 | 0.00 | 0.00 | 32 | 1005.6 |
| 20260504205029 | 22 | 251 | 8.0 | 14.5 | 0.00 | 0.00 | 0.00 | 33 | 1005.6 |
| 20260504204527 | 21 | 245 | 8.0 | 20.9 | 0.00 | 0.00 | 0.00 | 33 | 1005.8 |
| 20260504204026 | 21 | 282 | 6.4 | 9.7 | 0.00 | 0.00 | 0.00 | 32 | 1005.7 |
| 20260504203523 | 21 | 184 | 14.5 | 16.1 | 0.00 | 0.00 | 0.00 | 32 | 1005.7 |
| 20260504203020 | 21 | 199 | 11.3 | 17.7 | 0.00 | 0.00 | 0.00 | 33 | 1005.7 |
| 20260504202516 | 21 | 198 | 3.2 | 11.3 | 0.00 | 0.00 | 0.00 | 32 | 1005.7 |
| 20260504202013 | 22 | 327 | 9.7 | 19.3 | 0.00 | 0.00 | 0.00 | 32 | 1005.8 |
| 20260504201510 | 21 | 225 | 20.9 | 22.5 | 0.00 | 0.00 | 0.00 | 31 | 1005.9 |
| 20260504201008 | 21 | 248 | 9.7 | 14.5 | 0.00 | 0.00 | 0.00 | 32 | 1005.8 |
| 20260504200504 | 22 | 293 | 3.2 | 12.9 | 0.00 | 0.00 | 0.00 | 32 | 1005.6 |
| 20260504200000 | 21 | 238 | 8.0 | 20.9 | 0.00 | 0.00 | 0.00 | 32 | 1005.9 |
| 20260504195456 | 22 | 195 | 6.4 | 19.3 | 0.00 | 0.00 | 0.00 | 31 | 1005.7 |
| 20260504194953 | 21 | 290 | 9.7 | 14.5 | 0.00 | 0.00 | 0.00 | 32 | 1005.9 |
| 20260504194449 | 21 | 185 | 6.4 | 17.7 | 0.00 | 0.00 | 0.00 | 31 | 1005.8 |
| 20260504193945 | 21 | 303 | 8.0 | 14.5 | 0.00 | 0.00 | 0.00 | 31 | 1005.8 |
| 20260504193443 | 21 | 278 | 6.4 | 14.5 | 0.00 | 0.00 | 0.00 | 30 | 1005.9 |
| 20260504192941 | 21 | 160 | 0.0 | 8.0 | 0.00 | 0.00 | 0.00 | 33 | 1005.7 |
| 20260504192438 | 21 | 278 | 6.4 | 17.7 | 0.00 | 0.00 | 0.00 | 33 | 1005.7 |
| 20260504191937 | 21 | 301 | 3.2 | 22.5 | 0.00 | 0.00 | 0.00 | 31 | 1005.8 |
| 20260504191435 | 21 | 303 | 17.7 | 22.5 | 0.00 | 0.00 | 0.00 | 30 | 1005.9 |
| 20260504190935 | 21 | 241 | 14.5 | 24.1 | 0.00 | 0.00 | 0.00 | 31 | 1006.1 |
| 20260504190431 | 21 | 323 | 6.4 | 16.1 | 0.00 | 0.00 | 0.00 | 31 | 1006.1 |
| 20260504185928 | 21 | 326 | 14.5 | 19.3 | 0.00 | 0.00 | 0.00 | 30 | 1006.0 |
| 20260504185426 | 22 | 267 | 9.7 | 9.7 | 0.00 | 0.00 | 0.00 | 31 | 1006.0 |
| 20260504184921 | 21 | 231 | 4.8 | 9.7 | 0.00 | 0.00 | 0.00 | 32 | 1006.2 |
| 20260504184417 | 21 | 8 | 1.6 | 17.7 | 0.00 | 0.00 | 0.00 | 31 | 1006.4 |
| 20260504183913 | 21 | 291 | 9.7 | 14.5 | 0.00 | 0.00 | 0.00 | 32 | 1006.6 |
| 20260504183411 | 21 | 165 | 11.3 | 14.5 | 0.00 | 0.00 | 0.00 | 31 | 1006.3 |
| 20260504182909 | 21 | 190 | 6.4 | 27.4 | 0.00 | 0.00 | 0.00 | 31 | 1006.4 |
| 20260504182405 | 21 | 198 | 11.3 | 35.4 | 0.00 | 0.00 | 0.00 | 30 | 1006.3 |
| 20260504181902 | 21 | 141 | 11.3 | 35.4 | 0.00 | 0.00 | 0.00 | 31 | 1006.5 |
| 20260504181359 | 21 | 293 | 9.7 | 12.9 | 0.00 | 0.00 | 0.00 | 31 | 1006.3 |
| 20260504180858 | 21 | 322 | 4.8 | 24.1 | 0.00 | 0.00 | 0.00 | 33 | 1006.3 |
| 20260504180356 | 21 | 220 | 6.4 | 14.5 | 0.00 | 0.00 | 0.00 | 32 | 1006.5 |
| 20260504175854 | 21 | 249 | 9.7 | 14.5 | 0.00 | 0.00 | 0.00 | 31 | 1006.6 |
| 20260504175351 | 21 | 240 | 4.8 | 22.5 | 0.00 | 0.00 | 0.00 | 32 | 1006.5 |
| 20260504174849 | 20 | 290 | 8.0 | 30.6 | 0.00 | 0.00 | 0.00 | 32 | 1006.6 |
| 20260504174346 | 20 | 243 | 14.5 | 24.1 | 0.00 | 0.00 | 0.00 | 32 | 1006.6 |
| 20260504173843 | 21 | 350 | 0.0 | 17.7 | 0.00 | 0.00 | 0.00 | 32 | 1006.6 |
| 20260504173340 | 20 | 181 | 4.8 | 16.1 | 0.00 | 0.00 | 0.00 | 33 | 1006.8 |
| 20260504172837 | 20 | 269 | 12.9 | 19.3 | 0.00 | 0.00 | 0.00 | 33 | 1006.7 |
| 20260504172333 | 20 | 258 | 12.9 | 25.7 | 0.00 | 0.00 | 0.00 | 33 | 1007.0 |
| 20260504171829 | 20 | 209 | 14.5 | 19.3 | 0.00 | 0.00 | 0.00 | 33 | 1007.0 |
| 20260504171326 | 20 | 241 | 11.3 | 17.7 | 0.00 | 0.00 | 0.00 | 33 | 1006.7 |
| 20260504170824 | 20 | 276 | 8.0 | 20.9 | 0.00 | 0.00 | 0.00 | 32 | 1007.0 |
| 20260504170320 | 20 | 131 | 8.0 | 14.5 | 0.00 | 0.00 | 0.00 | 36 | 1007.0 |
| 20260504160239 | 18 | 210 | 25.7 | 29.0 | 0.00 | 0.00 | 0.00 | 36 | 1007.8 |
| 20260504150704 | 19 | 201 | 12.9 | 14.5 | 0.00 | 0.00 | 0.00 | 35 | 1008.1 |
| 20260504150201 | 18 | 292 | 4.8 | 22.5 | 0.00 | 0.00 | 0.00 | 37 | 1008.3 |
| 20260504141130 | 17 | 266 | 3.2 | 9.7 | 0.00 | 0.00 | 0.00 | 39 | 1008.6 |
| 20260504140627 | 17 | 258 | 4.8 | 8.0 | 0.00 | 0.00 | 0.00 | 40 | 1008.4 |
| 20260504140122 | 17 | 215 | 8.0 | 8.0 | 0.00 | 0.00 | 0.00 | 41 | 1008.5 |
| 20260504130551 | 15 | 212 | 3.2 | 8.0 | 0.00 | 0.00 | 0.00 | 47 | 1009.5 |
| 20260504110438 | 10 | 219 | 1.6 | 8.0 | 0.00 | 0.00 | 0.00 | 53 | 1009.8 |
| 20260504100355 | 8 | 278 | 0.0 | 6.4 | 0.00 | 0.00 | 0.00 | 58 | 1009.6 |
| 20260504081748 | 7 | 217 | 4.8 | 4.8 | 0.00 | 0.00 | 0.00 | 60 | 1009.7 |
| 20260504081244 | 7 | 181 | 3.2 | 4.8 | 0.00 | 0.00 | 0.00 | 62 | 1009.6 |
| 20260504080741 | 7 | 89 | 0.0 | 3.2 | 0.00 | 0.00 | 0.00 | 63 | 1009.4 |
| 20260504080237 | 7 | 142 | 1.6 | 6.4 | 0.00 | 0.00 | 0.00 | 60 | 1009.4 |
| 20260504070205 | 7 | 187 | 3.2 | 4.8 | 0.00 | 0.00 | 0.00 | 62 | 1009.4 |
| 20260504060125 | 4 | 54 | 0.0 | 1.6 | 0.00 | 0.00 | 0.00 | 80 | 1009.4 |
| 20260504050554 | 2 | 93 | 0.0 | 0.0 | 0.00 | 0.00 | 0.00 | 85 | 1009.6 |
| 20260504045547 | 2 | 110 | 0.0 | 1.6 | 0.00 | 0.00 | 0.00 | 86 | 1009.4 |
| 20260504045042 | 1 | 3 | 0.0 | 4.8 | 0.00 | 0.00 | 0.00 | 85 | 1009.6 |
| 20260504044540 | 1 | 67 | 1.6 | 3.2 | 0.00 | 0.00 | 0.00 | 87 | 1009.7 |
| 20260504044037 | 1 | 70 | 1.6 | 3.2 | 0.00 | 0.00 | 0.00 | 87 | 1009.5 |
| 20260504043534 | 1 | 218 | 0.0 | 0.0 | 0.00 | 0.00 | 0.00 | 87 | 1009.6 |
| 20260504043032 | 1 | 55 | 0.0 | 0.0 | 0.00 | 0.00 | 0.00 | 86 | 1009.7 |
| 20260504042528 | 1 | 89 | 0.0 | 1.6 | 0.00 | 0.00 | 0.00 | 86 | 1009.7 |
| 20260504042025 | 1 | 32 | 0.0 | 3.2 | 0.00 | 0.00 | 0.00 | 87 | 1009.5 |
| 20260504041521 | 1 | 51 | 1.6 | 1.6 | 0.00 | 0.00 | 0.00 | 87 | 1009.4 |
| 20260504041017 | 1 | 89 | 0.0 | 1.6 | 0.00 | 0.00 | 0.00 | 87 | 1009.5 |
| 20260504040515 | 1 | 66 | 0.0 | 0.0 | 0.00 | 0.00 | 0.00 | 87 | 1009.5 |
| 20260504040012 | 1 | 131 | 0.0 | 1.6 | 0.00 | 0.00 | 0.00 | 86 | 1009.4 |
| 20260504035509 | 1 | 86 | 1.6 | 3.2 | 0.00 | 0.00 | 0.00 | 86 | 1009.5 |
| 20260504035005 | 1 | 66 | 1.6 | 1.6 | 0.00 | 0.00 | 0.00 | 85 | 1009.3 |
| 20260504034502 | 1 | 76 | 1.6 | 3.2 | 0.00 | 0.00 | 0.00 | 85 | 1009.4 |
| 20260504033959 | 1 | 66 | 0.0 | 1.6 | 0.00 | 0.00 | 0.00 | 84 | 1009.2 |
| 20260504033457 | 1 | 113 | 0.0 | 3.2 | 0.00 | 0.00 | 0.00 | 84 | 1009.3 |
| 20260504032954 | 1 | 80 | 0.0 | 1.6 | 0.00 | 0.00 | 0.00 | 83 | 1009.2 |
| 20260504032451 | 1 | 119 | 0.0 | 3.2 | 0.00 | 0.00 | 0.00 | 82 | 1009.4 |
| 20260504031948 | 1 | 89 | 0.0 | 1.6 | 0.00 | 0.00 | 0.00 | 83 | 1009.0 |
| 20260504031445 | 1 | 75 | 1.6 | 1.6 | 0.00 | 0.00 | 0.00 | 82 | 1009.1 |
| 20260504030941 | 1 | 89 | 0.0 | 1.6 | 0.00 | 0.00 | 0.00 | 81 | 1009.1 |
| 20260504030438 | 1 | 104 | 0.0 | 1.6 | 0.00 | 0.00 | 0.00 | 80 | 1009.1 |
| 20260504025934 | 1 | 62 | 0.0 | 0.0 | 0.00 | 0.00 | 0.00 | 80 | 1009.2 |
| 20260504025431 | 1 | 89 | 0.0 | 3.2 | 0.00 | 0.00 | 0.00 | 79 | 1009.0 |
| 20260504024928 | 2 | 105 | 0.0 | 1.6 | 0.00 | 0.00 | 0.00 | 80 | 1008.9 |
| 20260504024425 | 2 | 103 | 0.0 | 1.6 | 0.00 | 0.00 | 0.00 | 79 | 1008.9 |
| 20260504023922 | 2 | 119 | 0.0 | 1.6 | 0.00 | 0.00 | 0.00 | 77 | 1008.9 |
| 20260504023419 | 2 | 66 | 0.0 | 3.2 | 0.00 | 0.00 | 0.00 | 76 | 1009.0 |
| 20260504022914 | 2 | 56 | 1.6 | 3.2 | 0.00 | 0.00 | 0.00 | 75 | 1008.8 |
| 20260504022411 | 2 | 56 | 0.0 | 3.2 | 0.00 | 0.00 | 0.00 | 75 | 1008.7 |
| 20260504021908 | 2 | 66 | 0.0 | 1.6 | 0.00 | 0.00 | 0.00 | 76 | 1009.0 |
| 20260504021405 | 2 | 69 | 1.6 | 3.2 | 0.00 | 0.00 | 0.00 | 75 | 1009.0 |
| 20260504020902 | 3 | 87 | 1.6 | 1.6 | 0.00 | 0.00 | 0.00 | 74 | 1009.0 |
| 20260504020359 | 3 | 113 | 0.0 | 0.0 | 0.00 | 0.00 | 0.00 | 73 | 1008.9 |
| 20260504015854 | 3 | 77 | 1.6 | 3.2 | 0.00 | 0.00 | 0.00 | 73 | 1008.9 |
| 20260504015351 | 3 | 147 | 0.0 | 1.6 | 0.00 | 0.00 | 0.00 | 71 | 1008.8 |
| 20260504014847 | 3 | 107 | 0.0 | 1.6 | 0.00 | 0.00 | 0.00 | 69 | 1008.7 |
| 20260504014343 | 3 | 89 | 0.0 | 0.0 | 0.00 | 0.00 | 0.00 | 70 | 1008.8 |
| 20260504013841 | 4 | 44 | 0.0 | 1.6 | 0.00 | 0.00 | 0.00 | 66 | 1008.6 |
| 20260504013339 | 4 | 87 | 1.6 | 1.6 | 0.00 | 0.00 | 0.00 | 64 | 1008.5 |
| 20260504012835 | 5 | 109 | 0.0 | 1.6 | 0.00 | 0.00 | 0.00 | 66 | 1008.6 |
| 20260504012333 | 5 | 124 | 0.0 | 0.0 | 0.00 | 0.00 | 0.00 | 66 | 1008.6 |
| 20260504011830 | 5 | 62 | 3.2 | 3.2 | 0.00 | 0.00 | 0.00 | 59 | 1008.5 |
| 20260504011327 | 5 | 62 | 3.2 | 3.2 | 0.00 | 0.00 | 0.00 | 59 | 1008.4 |
| 20260504010822 | 5 | 62 | 3.2 | 3.2 | 0.00 | 0.00 | 0.00 | 59 | 1008.4 |
| 20260504010318 | 5 | 62 | 3.2 | 3.2 | 0.00 | 0.00 | 0.00 | 59 | 1008.3 |
| 20260504005815 | 5 | 66 | 1.6 | 1.6 | 0.00 | 0.00 | 0.00 | 59 | 1008.2 |
| 20260504005312 | 6 | 70 | 0.0 | 3.2 | 0.00 | 0.00 | 0.00 | 60 | 1008.1 |
| 20260504004810 | 6 | 89 | 0.0 | 1.6 | 0.00 | 0.00 | 0.00 | 58 | 1008.1 |
| 20260504004307 | 6 | 89 | 0.0 | 1.6 | 0.00 | 0.00 | 0.00 | 57 | 1008.0 |